Location: Newark
(45.4422°N, 16.2769°E)
Time: 12:48:17
(UTC+00:00)

Transit 2A - Visible Passes

Search period start: 06 December 2019 00:00
Search period end: 16 December 2019 00:00
Orbit: 602 x 957 km, 66.7° (Epoch: 05 December)

Date Brightness Start Highest point End Pass type
(mag) Time Alt. Az. Time Alt. Az. Time Alt. Az.
06 Dec 8.9 05:43:19 10° SSE 05:46:27 17° ESE 05:49:27 10° ENE visible
06 Dec 7.0 16:08:30 10° NW 16:12:41 43° WSW 16:17:07 10° S visible
07 Dec 9.5 05:11:07 10° ESE 05:12:32 11° ESE 05:13:54 10° E visible
08 Dec 9.3 16:45:29 10° W 16:47:03 12° WSW 16:48:39 10° SW visible
09 Dec 7.3 05:42:22 10° S 05:46:54 40° ESE 05:51:08 10° NE visible
09 Dec 8.9 16:10:06 10° WNW 16:13:08 18° WSW 16:16:16 10° SSW visible
10 Dec 8.1 05:08:49 10° S 05:12:53 27° ESE 05:16:43 10° NE visible
11 Dec 8.7 04:35:37 10° SSE 04:38:54 18° ESE 04:42:03 10° ENE visible
12 Dec 9.1 04:03:09 10° SE 04:04:58 12° ESE 04:06:45 10° E visible
12 Dec 5.6 05:42:44 10° SW 05:47:32 83° NW 05:52:00 10° NNE visible
13 Dec 6.1 05:08:41 10° SSW 05:13:25 67° ESE 05:17:52 10° NE visible
14 Dec 6.9 04:34:49 10° S 04:39:22 44° ESE 04:43:37 10° NE visible
15 Dec 7.6 04:01:13 10° S 04:05:20 29° ESE 04:09:14 10° NE visible
15 Dec 6.2 05:44:03 10° WSW 05:48:22 36° NW 05:52:29 10° NNE visible
